Date,TemperatureHighF,TemperatureAvgF,TemperatureLowF,DewpointHighF,DewpointAvgF,DewpointLowF,HumidityHigh,HumidityAvg,HumidityLow,PressureMaxIn,PressureMinIn,WindSpeedMaxMPH,WindSpeedAvgMPH,GustSpeedMaxMPH,PrecipitationSumIn
2013-4-25,42.4,37.8,33.9,20.0,7.1,-99.9,51,33,29,29.78,29.69,27,-31,34,0.00
2013-4-26,40.9,33.7,27.3,24.0,13.7,8.0,67,45,32,29.74,29.48,22,8,32,0.00
2013-4-27,43.5,36.1,29.7,24.0,16.6,13.0,68,47,30,29.89,29.50,28,10,30,0.00
2013-4-28,43.1,35.3,27.8,24.0,12.8,7.0,65,40,29,30.15,29.90,15,8,21,0.00
2013-4-29,42.8,36.0,27.3,24.0,19.9,14.0,74,54,37,30.19,30.09,11,4,14,0.00
2013-4-30,40.7,37.7,35.0,34.0,28.2,21.0,91,70,47,30.09,29.82,11,4,20,0.00
2013-5-1,45.2,38.6,30.8,33.0,27.4,22.0,96,67,48,29.82,29.54,13,5,19,0.00
2013-5-2,40.2,37.6,34.8,38.0,34.2,29.0,95,87,64,29.86,29.63,9,4,12,0.04
2013-5-3,43.5,38.7,34.0,38.0,35.5,33.0,95,88,74,29.92,29.79,16,4,26,0.00
2013-5-4,39.3,36.4,33.1,37.0,34.6,32.0,97,93,85,29.95,29.75,9,3,11,0.30
2013-5-5,46.5,40.3,35.0,35.0,25.9,21.0,90,58,40,30.13,29.95,12,5,16,0.00
2013-5-6,44.8,40.1,34.5,31.0,28.0,24.0,76,63,49,30.26,30.13,18,5,20,0.00
2013-5-7,46.8,40.8,36.5,33.0,26.7,-99.9,80,62,51,30.29,30.24,12,-6,15,0.00
2013-5-8,53.8,43.6,34.7,33.0,30.3,28.0,86,62,38,30.28,30.22,11,4,15,0.00
2013-5-9,52.3,45.5,37.9,38.0,30.3,25.0,70,56,47,30.31,30.23,11,4,21,0.00
2013-5-10,60.0,50.1,38.0,37.0,33.8,31.0,80,55,37,30.24,29.94,15,4,16,0.00
2013-5-11,54.4,49.4,43.6,43.0,38.8,35.0,80,67,54,29.94,29.57,10,3,11,0.00
2013-5-12,52.1,47.8,44.2,46.0,41.3,37.0,92,78,69,29.57,29.46,8,3,12,0.07
2013-5-13,53.2,46.0,41.3,42.0,30.2,17.0,96,60,28,29.47,29.40,14,6,21,0.07
2013-5-14,46.7,40.9,35.5,32.0,21.0,16.0,75,46,35,29.62,29.47,9,4,15,0.00
2013-5-15,49.3,42.2,37.7,34.0,30.1,26.0,83,64,43,29.75,29.63,20,5,26,0.00
2013-5-16,43.4,39.3,36.4,38.0,34.8,30.0,95,85,61,29.73,29.46,12,6,16,0.02
2013-5-17,39.6,35.8,32.4,39.0,34.3,27.0,96,94,77,29.55,29.39,13,4,21,0.56
2013-5-18,39.9,32.9,26.5,28.0,23.1,16.0,89,69,41,30.18,29.55,18,6,24,0.06
2013-5-19,46.2,38.9,31.8,28.0,18.5,14.0,74,45,34,30.61,30.19,13,6,20,0.00
2013-5-20,51.7,42.8,34.1,29.0,24.7,22.0,73,50,36,30.64,30.55,13,5,16,0.00
2013-5-21,51.3,44.2,35.8,35.0,31.1,26.0,74,61,45,30.57,30.28,13,4,20,0.00
2013-5-22,52.6,46.5,40.5,41.0,35.4,32.0,88,66,48,30.27,30.13,19,4,23,0.00
2013-5-23,56.8,49.0,43.0,44.0,42.3,41.0,96,79,60,30.16,30.09,11,4,14,0.00
2013-5-24,66.0,53.4,42.1,44.0,41.4,39.0,91,66,43,30.09,29.96,10,3,15,0.00
2013-5-25,67.9,56.5,46.6,44.0,38.5,32.0,72,53,30,29.99,29.88,16,5,28,0.00
2013-5-26,60.0,51.9,42.9,45.0,41.2,36.0,87,68,45,29.94,29.86,10,3,15,0.00
2013-5-27,72.6,60.3,49.3,48.0,44.8,42.0,82,59,37,29.91,29.75,11,4,16,0.00
2013-5-28,71.5,58.2,45.3,53.0,46.2,41.0,85,66,45,29.77,29.63,7,2,11,0.00
2013-5-29,77.0,64.3,52.2,50.0,46.5,43.0,80,54,34,29.75,29.64,11,4,15,0.00
2013-5-30,67.9,58.4,52.7,48.0,44.8,42.0,78,61,44,30.00,29.75,11,5,18,0.00
2013-5-31,59.2,52.0,45.7,49.0,45.9,43.0,91,80,66,30.16,30.01,14,5,21,0.00
2013-6-1,54.7,49.7,45.9,47.0,44.9,43.0,93,83,73,30.21,30.16,14,5,19,0.00
2013-6-2,54.4,49.0,46.1,48.0,45.5,44.0,95,88,72,30.24,30.09,13,4,18,0.20
2013-6-3,58.2,51.3,46.5,48.0,44.6,41.0,95,79,60,30.08,29.75,9,3,13,0.00
2013-6-4,58.4,52.2,46.9,46.0,41.2,36.0,91,68,45,29.82,29.69,16,4,28,0.00
2013-6-5,59.4,51.9,45.6,43.0,40.0,36.0,84,65,45,29.96,29.83,19,5,22,0.00
2013-6-6,67.0,56.1,46.1,44.0,39.5,36.0,76,55,38,29.95,29.68,11,3,18,0.00
2013-6-7,71.5,58.5,48.2,46.0,42.9,40.0,83,58,35,29.92,29.68,15,3,25,0.00
2013-6-8,70.9,60.5,51.8,51.0,42.8,-99.9,71,55,42,30.10,29.92,13,4,16,0.00
2013-6-9,73.5,65.4,55.3,53.0,47.5,43.0,76,54,35,30.20,30.11,14,4,18,0.00
2013-6-10,73.6,64.0,58.1,51.0,47.6,45.0,68,56,39,30.23,30.12,12,4,19,0.00
2013-6-11,72.6,64.6,53.6,51.0,47.3,45.0,79,55,40,30.13,29.97,13,4,19,0.00
2013-6-12,76.4,65.4,56.4,52.0,46.9,41.0,70,53,30,30.00,29.93,9,3,14,0.00
2013-6-13,66.9,58.4,51.3,53.0,47.0,42.0,85,67,46,30.18,29.95,12,5,23,0.00
2013-6-14,69.8,59.1,51.4,54.0,48.0,44.0,89,68,47,30.25,30.17,10,4,13,0.00
2013-6-15,70.3,59.7,54.2,55.0,51.0,47.0,83,73,59,30.33,30.22,12,4,15,0.00
2013-6-16,76.6,66.8,55.7,60.0,54.3,48.0,81,65,51,30.25,30.10,8,3,10,0.00
2013-6-17,80.1,70.3,61.8,59.0,54.3,50.0,75,58,41,30.11,29.84,11,4,14,0.00
2013-6-18,83.4,72.6,60.6,57.0,51.1,44.0,78,50,25,29.88,29.76,13,3,23,0.00
2013-6-19,73.4,66.1,59.3,52.0,48.8,45.0,69,55,38,29.96,29.89,20,4,22,0.00
2013-6-20,68.1,60.3,54.1,54.0,50.6,47.0,83,71,59,30.02,29.96,14,5,25,0.00
2013-6-21,55.7,52.3,49.4,50.0,45.7,42.0,85,78,65,30.12,30.03,12,5,14,0.00
2013-6-22,68.4,58.9,51.5,51.0,46.3,43.0,82,65,41,30.06,29.77,11,4,18,0.00
2013-6-23,68.5,62.1,53.9,51.0,47.9,45.0,79,61,49,29.77,29.62,10,2,18,0.00
2013-6-24,70.1,63.2,56.2,53.0,50.0,47.0,81,63,50,29.68,29.60,11,4,14,0.00
2013-6-25,72.3,64.4,57.4,57.0,51.9,49.0,76,64,54,29.63,29.59,10,2,14,0.00
2013-6-26,79.6,68.8,59.7,57.0,54.3,51.0,80,61,39,29.86,29.62,19,3,27,0.00
2013-6-27,68.4,61.2,56.8,57.0,54.7,53.0,86,79,60,30.08,29.86,14,6,18,0.00
2013-6-28,60.9,56.7,54.9,55.0,52.9,51.0,92,87,80,30.20,30.08,12,5,18,0.00
2013-6-29,65.1,59.3,54.9,57.0,53.5,51.0,92,81,69,30.15,30.00,10,3,15,0.00
2013-6-30,62.3,56.3,54.4,54.0,50.8,49.0,91,82,64,30.06,29.82,9,4,16,0.00
2013-7-1,60.2,54.9,51.7,53.0,50.8,49.0,96,86,68,29.82,29.60,11,4,16,0.18
2013-7-2,61.2,55.9,52.0,51.0,47.8,43.0,92,75,55,29.88,29.60,16,4,27,0.00
2013-7-3,61.3,56.0,52.3,50.0,47.1,44.0,88,73,54,30.03,29.90,13,4,20,0.00
2013-7-4,58.1,54.4,51.7,50.0,48.0,43.0,90,80,57,30.06,29.99,14,4,21,0.06
2013-7-5,60.7,55.3,51.7,51.0,48.6,46.0,88,79,60,30.09,30.02,15,4,16,0.00
2013-7-6,61.1,55.4,52.3,52.0,49.9,48.0,92,82,66,30.03,29.77,11,5,16,0.00
2013-7-7,65.6,56.1,52.3,53.0,50.9,48.0,95,83,59,29.77,29.58,23,5,28,0.00
2013-7-8,59.4,53.8,48.8,50.0,46.7,-99.9,93,82,69,29.82,29.68,11,4,16,0.01
2013-7-9,64.2,57.4,53.1,52.0,50.2,48.0,88,77,59,30.03,29.83,14,5,16,0.00
2013-7-10,70.1,62.3,57.1,54.0,49.6,-99.9,78,67,55,30.05,29.93,11,4,14,0.00
2013-7-11,74.8,66.4,57.8,56.0,53.8,50.0,89,65,47,29.95,29.90,12,4,13,0.01
2013-7-12,75.5,66.6,58.9,57.0,53.1,51.0,77,63,46,29.96,29.90,9,4,12,0.00
2013-7-13,68.6,64.7,61.3,57.0,53.7,51.0,80,68,60,30.17,29.95,11,5,19,0.00
2013-7-14,64.9,59.4,55.4,55.0,52.9,52.0,92,79,67,30.33,30.18,16,6,19,0.00
2013-7-15,61.2,57.7,55.2,54.0,52.0,50.0,86,81,77,30.36,30.25,13,4,19,0.00
2013-7-16,67.1,60.7,56.6,57.0,54.2,52.0,88,79,68,30.26,30.14,11,4,15,0.00
2013-7-17,71.0,64.1,58.4,61.0,57.0,53.0,88,78,69,30.15,30.06,11,4,13,0.00
2013-7-18,70.6,65.5,60.8,61.0,58.7,56.0,87,79,70,30.15,30.08,13,4,16,0.00
2013-7-19,70.6,65.6,62.9,60.0,55.7,54.0,76,71,56,30.19,30.11,15,5,22,0.00
2013-7-20,70.3,63.5,56.2,56.0,53.1,50.0,93,71,51,30.15,30.06,11,4,16,0.08
2013-7-21,77.6,67.0,57.0,54.0,49.1,46.0,74,54,37,30.07,29.93,21,7,26,0.00
2013-7-22,77.9,68.5,58.6,56.0,50.6,47.0,67,54,41,30.08,29.96,18,4,28,0.00
2013-7-23,76.5,67.4,60.3,58.0,53.3,49.0,79,61,51,30.11,30.02,10,3,12,0.00
2013-7-24,77.4,68.5,59.5,60.0,56.1,52.0,80,65,51,30.04,29.92,11,3,12,0.00
2013-7-25,72.7,65.8,60.6,62.0,58.9,56.0,92,79,65,30.06,29.95,13,4,25,0.03
2013-7-26,69.0,63.4,60.3,61.0,58.7,57.0,91,84,75,30.30,30.06,12,4,20,0.01
2013-7-27,68.7,63.6,59.3,60.0,57.5,56.0,89,81,72,30.36,30.30,11,4,13,0.00
2013-7-28,72.5,64.8,60.0,62.0,58.7,57.0,92,81,67,30.31,30.16,9,3,12,0.00
2013-7-29,72.0,64.9,60.4,61.0,58.4,56.0,88,80,68,30.20,30.14,11,4,14,0.00
2013-7-30,71.6,65.0,60.0,62.0,58.2,55.0,86,78,70,30.22,30.16,11,4,16,0.00
2013-7-31,69.7,64.1,59.9,60.0,57.5,56.0,89,79,68,30.22,30.13,12,4,14,0.00
2013-8-1,68.8,62.4,57.9,59.0,56.5,55.0,89,81,70,30.15,29.96,9,3,18,0.00
2013-8-2,71.5,63.7,58.8,57.0,54.9,52.0,88,74,53,30.00,29.80,13,4,22,0.00
2013-8-3,69.1,64.1,58.8,57.0,52.7,49.0,88,68,51,29.88,29.75,13,4,27,0.00
2013-8-4,66.3,61.6,58.2,55.0,52.7,50.0,85,73,58,29.96,29.88,9,4,13,0.00
2013-8-5,66.9,61.2,56.5,55.0,52.8,49.0,93,75,55,29.98,29.94,13,4,19,0.00
2013-8-6,68.6,61.3,56.8,55.0,53.0,51.0,89,75,58,29.96,29.90,10,3,11,0.03
2013-8-7,61.2,58.6,56.5,57.0,55.2,54.0,93,88,78,29.90,29.75,7,1,9,0.14
2013-8-8,63.0,58.1,55.6,57.0,53.1,49.0,95,84,69,29.82,29.73,16,5,26,0.02
2013-8-9,56.4,54.2,51.4,54.0,51.7,48.0,96,91,75,29.82,29.73,12,6,14,0.46
2013-8-10,59.8,55.5,53.2,56.0,48.4,-99.9,96,87,80,29.99,29.76,9,-9,11,0.08
2013-8-11,57.5,55.9,53.4,56.0,54.7,52.0,97,95,89,30.03,29.99,9,3,12,0.51
2013-8-12,68.4,59.4,55.0,61.0,57.0,55.0,98,92,76,30.06,30.01,11,4,12,0.36
2013-8-13,68.8,60.3,56.8,59.0,56.8,53.0,98,88,68,30.02,29.96,13,4,18,0.00
2013-8-14,61.0,57.1,55.1,53.0,51.6,51.0,89,82,71,30.04,29.90,11,3,14,0.00
2013-8-15,64.0,58.2,53.6,53.0,51.6,49.0,91,79,62,29.90,29.76,10,3,13,0.00
2013-8-16,59.3,56.3,52.8,56.0,52.6,49.0,92,87,82,29.76,29.65,6,1,8,0.08
2013-8-17,67.5,58.7,53.6,57.0,54.4,52.0,97,86,63,29.66,29.50,9,3,10,0.03
2013-8-18,60.7,57.7,55.0,58.0,54.3,-99.9,97,92,88,29.64,29.48,5,1,9,0.02
2013-8-19,58.3,55.7,54.1,57.0,54.1,53.0,96,94,90,29.75,29.65,8,2,9,0.32
2013-8-20,59.6,56.0,52.4,55.0,52.6,50.0,96,88,74,29.85,29.75,14,3,18,0.02
2013-8-21,58.0,54.9,53.3,54.0,52.1,50.0,96,90,74,29.86,29.76,7,2,12,0.12
2013-8-22,55.6,53.6,51.3,54.0,52.4,50.0,97,95,92,29.76,29.69,8,2,8,0.43
2013-8-23,64.0,57.7,53.1,56.0,53.5,51.0,97,86,68,29.69,29.52,14,3,16,0.00
2013-8-24,71.1,59.1,50.6,55.0,49.3,42.0,97,73,39,29.69,29.56,15,4,15,0.01
2013-8-25,64.1,56.1,46.0,51.0,43.9,40.0,84,65,49,29.74,29.68,10,3,14,0.00
2013-8-26,64.6,56.6,47.4,53.0,48.9,44.0,92,76,59,29.76,29.71,7,2,11,0.00
2013-8-27,62.9,56.6,50.9,55.0,50.3,47.0,88,79,66,29.80,29.72,10,2,12,0.00
2013-8-28,59.9,56.9,53.2,54.0,50.6,47.0,95,80,65,29.73,29.56,14,4,16,0.24
2013-8-29,56.6,53.5,51.1,55.0,50.2,-99.9,95,92,91,29.87,29.54,11,5,15,0.03
2013-8-30,60.3,56.1,52.6,56.0,53.6,52.0,98,91,80,29.97,29.87,7,2,10,0.00
2013-8-31,58.2,55.4,53.3,54.0,52.4,51.0,93,89,78,29.93,29.83,8,2,13,0.01
2013-9-1,58.0,54.5,52.5,54.0,51.5,51.0,95,89,81,29.85,29.71,8,2,10,0.00
2013-9-2,64.6,56.7,51.7,54.0,51.3,48.0,96,83,56,29.71,29.50,26,6,32,0.12
2013-9-3,64.9,55.5,52.2,54.0,51.4,50.0,94,86,65,29.53,29.28,13,5,23,0.00